When you browse on this site, cookies collect data to enhance your experience and personalize the content and advertising you see.
Visit our Privacy Policy to learn more. By continuing to use the site, you agree to this use of cookies and data.
  • In United Kingdom
  • List of Countries
  • For 7 days
  • Water Temperature
  • Satellite Maps
  • Weather Map
  • Weather Widgets
  • user-avatar
    Login

    Hourly Weather Holguin

    Today, 20 July, Saturday

    Time Temperature Precipitation Wind Pressure Humidity
    00:00 +27°C° 0.4 mm 4 mps 749 mmHg 86%
    01:00 +27°C° 0.4 mm 3 mps 748 mmHg 89%
    02:00 +26°C° 0.2 mm 3 mps 748 mmHg 91%
    03:00 +26°C° 0.2 mm 3 mps 748 mmHg 92%
    04:00 +26°C° 0.2 mm 2 mps 748 mmHg 94%
    05:00 +27°C° 0.1 mm 3 mps 748 mmHg 90%
    06:00 +27°C° 0.1 mm 4 mps 748 mmHg 87%
    07:00 +28°C° 0.1 mm 5 mps 748 mmHg 84%
    08:00 +30°C° 0 mm 5 mps 749 mmHg 76%
    09:00 +33°C° 0 mm 6 mps 749 mmHg 68%
    10:00 +34°C° 0 mm 6 mps 749 mmHg 61%
    11:00 +35°C° 0 mm 6 mps 749 mmHg 57%
    12:00 +36°C° 0 mm 6 mps 749 mmHg 53%
    13:00 +38°C° 0 mm 6 mps 749 mmHg 50%
    14:00 +36°C° 0.1 mm 6 mps 748 mmHg 52%
    15:00 +35°C° 0.1 mm 6 mps 748 mmHg 54%
    16:00 +35°C° 0.1 mm 7 mps 747 mmHg 56%
    17:00 +33°C° 0.1 mm 6 mps 747 mmHg 61%
    18:00 +30°C° 0.1 mm 6 mps 747 mmHg 67%
    19:00 +29°C° 0.1 mm 6 mps 747 mmHg 73%
    20:00 +28°C° 0.1 mm 5 mps 748 mmHg 76%
    21:00 +28°C° 0.1 mm 5 mps 749 mmHg 80%
    22:00 +27°C° 0.1 mm 5 mps 749 mmHg 83%
    23:00 +27°C° 0 mm 4 mps 749 mmHg 86%

    Tomorrow, 21 July, Sunday

    Time Temperature Precipitation Wind Pressure Humidity
    00:00 +26°C° 0 mm 4 mps 748 mmHg 89%
    01:00 +26°C° 0 mm 3 mps 748 mmHg 92%
    02:00 +26°C° 0 mm 3 mps 748 mmHg 93%
    03:00 +25°C° 0 mm 3 mps 748 mmHg 93%
    04:00 +25°C° 0 mm 3 mps 747 mmHg 94%
    05:00 +26°C° 0 mm 3 mps 748 mmHg 90%
    06:00 +27°C° 0 mm 4 mps 748 mmHg 86%
    07:00 +28°C° 0 mm 4 mps 748 mmHg 81%
    08:00 +30°C° 0 mm 5 mps 749 mmHg 72%
    09:00 +33°C° 0 mm 5 mps 749 mmHg 62%
    10:00 +34°C° 0 mm 5 mps 749 mmHg 52%
    11:00 +35°C° 0 mm 5 mps 749 mmHg 48%
    12:00 +36°C° 0 mm 6 mps 749 mmHg 45%
    13:00 +38°C° 0 mm 6 mps 749 mmHg 41%
    14:00 +36°C° 0 mm 6 mps 748 mmHg 43%
    15:00 +35°C° 0 mm 6 mps 748 mmHg 46%
    16:00 +35°C° 0 mm 6 mps 747 mmHg 49%
    17:00 +33°C° 0 mm 6 mps 747 mmHg 58%
    18:00 +30°C° 0 mm 5 mps 748 mmHg 67%
    19:00 +28°C° 0 mm 4 mps 748 mmHg 76%
    20:00 +27°C° 0 mm 4 mps 748 mmHg 80%
    21:00 +27°C° 0 mm 3 mps 748 mmHg 85%
    22:00 +26°C° 0 mm 3 mps 749 mmHg 90%
    23:00 +26°C° 0 mm 2 mps 748 mmHg 90%

    Day after tomorrow, 22 July, Monday

    Time Temperature Precipitation Wind Pressure Humidity
    00:00 +26°C° 0 mm 2 mps 748 mmHg 91%
    01:00 +25°C° 0 mm 2 mps 747 mmHg 91%
    02:00 +25°C° 0.1 mm 2 mps 747 mmHg 92%
    03:00 +25°C° 0.1 mm 1 mps 747 mmHg 92%
    04:00 +25°C° 0.1 mm 1 mps 747 mmHg 92%
    05:00 +26°C° 0.2 mm 2 mps 747 mmHg 89%
    06:00 +27°C° 0.2 mm 2 mps 748 mmHg 86%
    07:00 +27°C° 0.2 mm 2 mps 748 mmHg 83%
    08:00 +29°C° 0.1 mm 3 mps 748 mmHg 73%
    09:00 +31°C° 0.1 mm 3 mps 748 mmHg 63%
    10:00 +34°C° 0.1 mm 3 mps 749 mmHg 53%
    11:00 +35°C° 0.1 mm 3 mps 749 mmHg 49%
    12:00 +36°C° 0.1 mm 3 mps 748 mmHg 46%
    13:00 +37°C° 0.1 mm 3 mps 748 mmHg 42%
    14:00 +36°C° 1.1 mm 4 mps 748 mmHg 48%
    15:00 +34°C° 1.1 mm 5 mps 747 mmHg 54%
    16:00 +33°C° 1.1 mm 6 mps 747 mmHg 60%
    17:00 +32°C° 0.8 mm 5 mps 747 mmHg 65%
    18:00 +30°C° 0.8 mm 5 mps 747 mmHg 71%
    19:00 +28°C° 0.8 mm 5 mps 748 mmHg 76%
    20:00 +28°C° 0.2 mm 4 mps 748 mmHg 78%
    21:00 +27°C° 0.2 mm 4 mps 748 mmHg 80%
    22:00 +27°C° 0.2 mm 4 mps 749 mmHg 82%
    23:00 +27°C° 0 mm 4 mps 748 mmHg 84%

    23 July, Tuesday

    Time Temperature Precipitation Wind Pressure Humidity
    00:00 +26°C° 0 mm 3 mps 748 mmHg 85%
    01:00 +26°C° 0 mm 3 mps 748 mmHg 87%
    02:00 +25°C° 0 mm 2 mps 747 mmHg 88%
    03:00 +25°C° 0 mm 2 mps 747 mmHg 90%
    04:00 +25°C° 0 mm 2 mps 747 mmHg 91%
    05:00 +25°C° 0 mm 2 mps 747 mmHg 88%
    06:00 +26°C° 0 mm 2 mps 748 mmHg 85%
    07:00 +27°C° 0 mm 2 mps 748 mmHg 82%
    08:00 +29°C° 0 mm 2 mps 748 mmHg 73%
    09:00 +31°C° 0 mm 1 mps 749 mmHg 63%
    10:00 +33°C° 0 mm 1 mps 749 mmHg 54%
    11:00 +35°C° 0.1 mm 2 mps 749 mmHg 51%
    12:00 +35°C° 0.1 mm 2 mps 749 mmHg 48%
    13:00 +36°C° 0.1 mm 2 mps 749 mmHg 44%
    14:00 +35°C° 1.1 mm 3 mps 748 mmHg 51%
    15:00 +34°C° 1.1 mm 3 mps 748 mmHg 57%
    16:00 +33°C° 1.1 mm 4 mps 747 mmHg 63%
    17:00 +30°C° 2.8 mm 3 mps 748 mmHg 70%
    18:00 +29°C° 2.8 mm 3 mps 748 mmHg 77%
    19:00 +27°C° 2.8 mm 2 mps 748 mmHg 84%
    20:00 +27°C° 0.3 mm 2 mps 748 mmHg 85%
    21:00 +27°C° 0.3 mm 2 mps 749 mmHg 86%
    22:00 +26°C° 0.3 mm 2 mps 749 mmHg 87%
    23:00 +26°C° 0 mm 1 mps 749 mmHg 88%

    24 July, Wednesday

    Time Temperature Precipitation Wind Pressure Humidity
    00:00 +26°C° 0 mm 1 mps 748 mmHg 88%
    01:00 +25°C° 0 mm 1 mps 748 mmHg 89%
    02:00 +25°C° 0 mm 1 mps 748 mmHg 89%
    03:00 +25°C° 0 mm 1 mps 748 mmHg 89%
    04:00 +24°C° 0 mm 1 mps 748 mmHg 89%
    05:00 +25°C° 0 mm 1 mps 748 mmHg 87%
    06:00 +26°C° 0 mm 1 mps 748 mmHg 85%
    07:00 +26°C° 0 mm 1 mps 749 mmHg 83%
    08:00 +28°C° 0 mm 1 mps 749 mmHg 73%
    09:00 +31°C° 0 mm 2 mps 749 mmHg 63%
    10:00 +34°C° 0 mm 2 mps 750 mmHg 53%
    11:00 +35°C° 0 mm 2 mps 749 mmHg 50%
    12:00 +36°C° 0 mm 2 mps 749 mmHg 47%
    13:00 +37°C° 0 mm 3 mps 749 mmHg 44%
    14:00 +36°C° 0.1 mm 3 mps 748 mmHg 48%
    15:00 +35°C° 0.1 mm 4 mps 748 mmHg 52%
    16:00 +34°C° 0.1 mm 4 mps 748 mmHg 56%
    17:00 +32°C° 0.2 mm 4 mps 748 mmHg 62%
    18:00 +30°C° 0.2 mm 4 mps 748 mmHg 68%
    19:00 +29°C° 0.2 mm 4 mps 748 mmHg 74%
    20:00 +28°C° 0.1 mm 3 mps 748 mmHg 78%
    21:00 +28°C° 0.1 mm 3 mps 749 mmHg 82%
    22:00 +27°C° 0.1 mm 2 mps 749 mmHg 85%
    23:00 +27°C° 0 mm 2 mps 749 mmHg 87%

    25 July, Thursday

    Time Temperature Precipitation Wind Pressure Humidity
    00:00 +27°C° 0 mm 2 mps 748 mmHg 88%
    01:00 +26°C° 0 mm 2 mps 748 mmHg 90%
    02:00 +26°C° 0 mm 2 mps 748 mmHg 92%
    03:00 +26°C° 0 mm 2 mps 748 mmHg 94%
    04:00 +26°C° 0 mm 2 mps 748 mmHg 95%
    05:00 +27°C° 0 mm 2 mps 748 mmHg 93%
    06:00 +27°C° 0 mm 3 mps 749 mmHg 90%
    07:00 +28°C° 0 mm 3 mps 749 mmHg 87%
    08:00 +29°C° 0 mm 4 mps 749 mmHg 79%
    09:00 +32°C° 0 mm 4 mps 749 mmHg 70%
    10:00 +34°C° 0 mm 5 mps 750 mmHg 62%
    11:00 +35°C° 0 mm 5 mps 749 mmHg 58%
    12:00 +36°C° 0 mm 6 mps 749 mmHg 55%
    13:00 +36°C° 0 mm 6 mps 749 mmHg 51%
    14:00 +36°C° 0 mm 6 mps 749 mmHg 50%
    15:00 +35°C° 0 mm 7 mps 748 mmHg 49%
    16:00 +35°C° 0 mm 7 mps 748 mmHg 48%
    17:00 +33°C° 0 mm 7 mps 748 mmHg 54%
    18:00 +30°C° 0 mm 6 mps 748 mmHg 60%
    19:00 +29°C° 0 mm 6 mps 748 mmHg 65%
    20:00 +28°C° 0 mm 6 mps 749 mmHg 69%
    21:00 +28°C° 0 mm 5 mps 749 mmHg 74%
    22:00 +27°C° 0 mm 5 mps 749 mmHg 78%
    23:00 +27°C° 0 mm 4 mps 749 mmHg 81%
    Show more